CAPE
118 0 0 0 88 87 39 0 0 76 650 733 682 641 691 609 777 808 0 0 30 772 882 958 1301 1041 1116 1085 1131 983 949 843 795 961 932 887 695 641 864 778 828 630 513 626 803 393 263 169 2
6 0 0 0 16 0 3 0 113 406 732 499 706 726 728 323 0 23 0 0 2 2 49 578 863 976 1120 1260 1212 1133 1100 1083 1025 907 925 996 1123 1036 770 796 833 785 756 699 718 862 487 272 140
0 0 0 2 0 0 0 0 702 728 571 555 636 395 75 0 0 0 0 0 0 0 2 27 158 157 253 493 681 610 468 555 1029 1103 1161 1033 874 886 961 1071 1060 935 892 768 753 774 862 755 348
0 0 0 0 0 0 0 0 1 427 479 359 242 84 0 0 0 0 0 0 0 0 0 1 1 1 1 1 1 1 5 13 164 442 890 959 1056 949 963 829 826 970 933 1013 891 681 817 861 887
0 0 0 0 0 0 0 0 17 96 57 5 144 123 0 0 0 0 0 0 0 0 0 0 0 0 0 0 0 0 0 0 1 1 48 518 721 705 502 585 647 701 959 965 859 891 957 800 858
0 0 0 0 0 0 0 0 0 0 0 0 89 95 0 0 0 0 0 0 0 0 0 0 0 0 0 0 0 0 0 0 0 0 0 0 1 3 4 10 73 249 384 441 721 791 804 852 875
0 0 0 0 0 0 0 0 0 0 0 0 0 10 0 0 0 0 0 0 0 0 0 0 0 0 0 0 0 0 0 0 0 0 0 0 0 0 0 0 0 6 4 21 68 108 310 495 772
0 0 0 0 0 0 0 0 0 0 0 0 0 1 0 0 0 0 0 0 0 0 0 0 0 0 0 0 0 0 0 0 0 0 0 0 0 0 0 0 0 0 0 0 0 0 0 6 66
0 0 0 0 0 0 0 0 0 0 0 0 0 0 0 0 0 0 0 0 0 0 0 0 0 0 0 0 0 0 0 0 0 0 0 0 0 0 0 0 0 0 0 0 0 0 0 0 0
0 0 0 0 0 0 0 0 0 0 0 0 0 0 0 0 0 0 0 0 0 0 0 0 0 0 0 0 0 0 0 0 0 0 0 0 0 0 0 0 0 0 0 0 0 0 0 0 0
0 0 0 0 0 0 0 0 0 0 0 0 0 0 0 0 0 0 0 0 0 0 0 0 0 0 0 0 0 0 0 0 0 0 0 0 0 0 0 0 0 0 0 0 0 0 0 0 0
0 0 0 0 0 0 0 0 0 0 0 0 0 0 0 0 0 0 0 0 0 0 0 0 0 0 0 0 0 0 0 0 0 0 0 0 0 0 0 0 0 0 0 0 0 0 0 0 0
0 0 0 0 0 0 0 0 0 0 0 0 0 0 0 0 0 0 0 0 0 0 0 0 0 0 0 0 0 0 0 0 0 0 0 0 0 0 0 0 0 0 0 0 0 0 0 0 0
0 0 0 0 0 0 0 0 0 0 0 0 0 0 0 0 0 0 0 0 0 0 0 0 0 0 0 0 0 0 0 0 0 0 0 0 0 0 0 0 0 0 0 0 0 0 0 0 0
0 0 0 0 0 0 0 0 0 0 0 0 0 0 0 0 0 0 0 0 0 0 0 0 0 0 0 0 0 0 0 0 0 0 0 0 0 0 0 0 0 0 0 0 0 0 0 0 0
0 0 0 0 0 0 0 0 0 0 0 0 0 0 0 0 0 0 0 0 0 0 0 0 0 0 0 0 0 0 0 0 1 0 0 0 0 0 0 0 0 0 0 0 0 0 0 0 0
0 0 0 0 0 0 0 0 0 0 0 0 0 0 0 0 0 0 0 0 0 0 0 0 0 0 0 0 0 0 0 0 14 29 10 0 0 0 0 9 4 1 0 1 1 0 0 0 0
0 0 0 0 0 0 0 0 0 0 0 0 0 0 0 0 0 0 0 0 0 0 0 0 0 0 0 0 0 0 0 0 1 34 52 22 4 0 0 0 0 0 0 0 0 0 1 1 0
0 0 0 0 0 0 0 0 0 0 0 0 0 0 0 0 0 0 0 0 0 0 0 0 0 0 0 0 0 0 0 0 0 10 33 28 20 20 23 2 0 0 0 0 0 0 0 0 0
0 0 0 0 0 0 0 0 0 0 0 0 0 0 0 0 0 0 0 0 0 0 0 0 0 0 0 0 0 0 0 0 0 0 0 30 34 24 4 12 0 0 0 0 0 0 0 0 0
0 0 0 0 0 0 0 0 0 0 0 0 0 0 0 0 0 0 0 0 0 0 0 0 0 0 0 0 0 0 3 3 0 0 0 0 0 5 8 5 10 10 4 0 0 0 0 0 0
0 0 0 0 0 0 0 0 0 0 0 0 0 0 0 0 0 0 0 0 0 0 0 0 0 0 5 10 17 14 33 40 13 7 3 1 0 0 0 0 0 3 4 2 0 0 0 0 0
0 0 0 0 0 0 0 0 0 0 0 0 0 0 0 0 0 0 0 0 0 0 1 2 6 8 14 14 21 46 33 53 32 34 17 7 4 1 0 0 0 0 6 8 5 2 0 0 1
0 0 0 0 0 0 0 0 0 0 0 0 0 0 0 0 0 0 0 0 0 0 2 6 4 3 8 18 28 56 50 38 49 51 53 45 30 16 8 4 1 0 0 0 1 1 0 0 2
0 0 0 0 0 0 0 0 0 0 0 0 0 0 0 0 0 0 0 0 0 1 1 2 3 4 4 13 26 39 52 51 45 45 58 45 38 42 26 22 19 12 4 5 5 3 3 1 6
0 0 0 0 0 0 0 0 0 0 0 0 0 0 0 0 0 0 0 0 1 2 3 0 4 4 13 23 35 36 42 48 42 33 36 34 43 49 30 33 32 30 29 24 18 12 8 10 9
0 0 0 0 0 0 0 0 0 0 0 0 0 0 0 0 0 0 0 0 0 0 0 0 8 22 28 33 34 28 21 19 21 24 39 52 39 37 45 28 21 30 20 25 30 44 32 25 22
0 0 0 0 0 0 0 0 0 0 0 0 0 0 0 0 0 0 0 0 0 0 0 3 23 35 36 27 25 29 21 18 17 18 17 16 32 35 29 25 35 32 15 24 27 42 38 56 69
0 0 0 0 0 0 0 0 0 0 0 0 0 0 0 0 0 0 0 0 0 0 1 9 18 21 20 20 20 19 19 21 20 18 16 16 15 16 15 20 25 17 15 12 15 17 20 20 50
0 0 0 0 0 0 0 0 0 0 0 0 0 0 0 0 0 0 0 0 0 0 6 14 20 17 15 13 12 12 13 13 15 15 17 16 17 17 14 10 15 20 28 24 12 11 16 23 31
CIN
-478 -0 -0 -0 -47 -13 -24 -0 -0 -8 -12 -30 -35 -19 -48 -68 -25 -0 -0 -0 -11 -0 -0 -0 -1 -2 -0 -0 -0 -0 -0 -0 -1 -0 -0 -0 -0 -0 -1 -2 -0 -1 -3 -0 -0 -3 -4 -11 -1
-71 -0 -0 -0 -19 -0 -16 -0 -33 -32 -27 -46 -32 -15 -23 -71 -0 -36 -0 -0 -0 -0 -99 -14 -1 -2 -0 -0 -0 -0 -0 -0 -0 -0 -0 -0 -0 -5 -0 -0 -2 -1 -2 -1 -0 -0 -1 -9 -19
-0 -0 -0 -17 -0 -0 -0 -0 -21 -29 -33 -22 -23 -96 -87 -0 -0 -0 -0 -0 -0 -0 -0 -25 -66 -67 -53 -14 -3 -8 -20 -10 -0 -0 -1 -4 -6 -7 -2 -0 -0 -0 -0 -1 -2 -0 -0 -0 -2
-0 -0 -0 -0 -0 -0 -0 -0 -3 -25 -25 -43 -50 -63 -0 -0 -0 -0 -0 -0 -0 -0 -0 -0 -0 -0 -0 -3 -3 -3 -2 -12 -35 -4 -0 -0 -1 -5 -2 -3 -4 -5 -4 -0 -0 -1 -1 -0 -0
-0 -0 -0 -0 -0 -0 -0 -0 -116 -45 -76 -76 -55 -110 -0 -0 -0 -0 -0 -0 -0 -0 -0 -0 -0 -0 -0 -0 -0 -0 -0 -0 -0 -0 -34 -10 -0 -0 -4 -1 -1 -7 -0 -0 -0 -0 -0 -0 -1
-0 -0 -0 -0 -0 -0 -0 -0 -0 -0 -0 -0 -35 -54 -0 -0 -0 -0 -0 -0 -0 -0 -0 -0 -0 -0 -0 -0 -0 -0 -0 -0 -0 -0 -0 -0 -0 -0 -0 -44 -67 -9 -1 -5 -0 -0 -0 -1 -0
-0 -0 -0 -0 -0 -0 -0 -0 -0 -0 -0 -0 -0 -37 -0 -0 -0 -0 -0 -0 -0 -0 -0 -0 -0 -0 -0 -0 -0 -0 -0 -0 -0 -0 -0 -0 -0 -0 -0 -0 -0 -16 -0 -100 -75 -48 -6 -2 -0
-0 -0 -0 -0 -0 -0 -0 -0 -0 -0 -0 -0 -0 -0 -0 -0 -0 -0 -0 -0 -0 -0 -0 -0 -0 -0 -0 -0 -0 -0 -0 -0 -0 -0 -0 -0 -0 -0 -0 -0 -0 -0 -0 -0 -0 -0 -0 -129 -67
-0 -0 -0 -0 -0 -0 -0 -0 -0 -0 -0 -0 -0 -0 -0 -0 -0 -0 -0 -0 -0 -0 -0 -0 -0 -0 -0 -0 -0 -0 -0 -0 -0 -0 -0 -0 -0 -0 -0 -0 -0 -0 -0 -0 -0 -0 -0 -0 -0
-0 -0 -0 -0 -0 -0 -0 -0 -0 -0 -0 -0 -0 -0 -0 -0 -0 -0 -0 -0 -0 -0 -0 -0 -0 -0 -0 -0 -0 -0 -0 -0 -0 -0 -0 -0 -0 -0 -0 -0 -0 -0 -0 -0 -0 -0 -0 -0 -0
-0 -0 -0 -0 -0 -0 -0 -0 -0 -0 -0 -0 -0 -0 -0 -0 -0 -0 -0 -0 -0 -0 -0 -0 -0 -0 -0 -0 -0 -0 -0 -0 -0 -0 -0 -0 -0 -0 -0 -0 -0 -0 -0 -0 -0 -0 -0 -0 -0
-0 -0 -0 -0 -0 -0 -0 -0 -0 -0 -0 -0 -0 -0 -0 -0 -0 -0 -0 -0 -0 -0 -0 -0 -0 -0 -0 -0 -0 -0 -0 -0 -0 -0 -0 -0 -0 -0 -0 -0 -0 -0 -0 -0 -0 -0 -0 -0 -0
-0 -0 -0 -0 -0 -0 -0 -0 -0 -0 -0 -0 -0 -0 -0 -0 -0 -0 -0 -0 -0 -0 -0 -0 -0 -0 -0 -0 -0 -0 -0 -0 -0 -0 -0 -0 -0 -0 -0 -0 -0 -0 -0 -0 -0 -0 -0 -0 -0
-0 -0 -0 -0 -0 -0 -0 -0 -0 -0 -0 -0 -0 -0 -0 -0 -0 -0 -0 -0 -0 -0 -0 -0 -0 -0 -0 -0 -0 -0 -0 -0 -0 -0 -0 -0 -0 -0 -0 -0 -0 -0 -0 -0 -0 -0 -0 -0 -0
-0 -0 -0 -0 -0 -0 -0 -0 -0 -0 -0 -0 -0 -0 -0 -0 -0 -0 -0 -0 -0 -0 -0 -0 -0 -0 -0 -0 -0 -0 -0 -0 -0 -0 -0 -0 -0 -0 -0 -0 -0 -0 -0 -0 -0 -0 -0 -0 -0
-0 -0 -0 -0 -0 -0 -0 -0 -0 -0 -0 -0 -0 -0 -0 -0 -0 -0 -0 -0 -0 -0 -0 -0 -0 -0 -0 -0 -0 -0 -0 -0 -1 -0 -0 -0 -0 -0 -0 -0 -0 -0 -0 -0 -0 -0 -0 -0 -0
-0 -0 -0 -0 -0 -0 -0 -0 -0 -0 -0 -0 -0 -0 -0 -0 -0 -0 -0 -0 -0 -0 -0 -0 -0 -0 -0 -0 -0 -0 -0 -0 -7 -0 -0 -0 -0 -0 -0 -0 -0 -0 -0 -0 -0 -0 -0 -0 -0
-0 -0 -0 -0 -0 -0 -0 -0 -0 -0 -0 -0 -0 -0 -0 -0 -0 -0 -0 -0 -0 -0 -0 -0 -0 -0 -0 -0 -0 -0 -0 -0 -4 -4 -0 -1 -2 -0 -0 -0 -0 -0 -0 -0 -0 -0 -0 -0 -0
-0 -0 -0 -0 -0 -0 -0 -0 -0 -0 -0 -0 -0 -0 -0 -0 -0 -0 -0 -0 -0 -0 -0 -0 -0 -0 -0 -0 -0 -0 -0 -0 -0 -11 -10 -12 -13 -13 -8 -1 -0 -0 -0 -0 -0 -0 -0 -0 -0
-0 -0 -0 -0 -0 -0 -0 -0 -0 -0 -0 -0 -0 -0 -0 -0 -0 -0 -0 -0 -0 -0 -0 -0 -0 -0 -0 -0 -0 -0 -0 -0 -0 -0 -0 -27 -19 -14 -12 -12 -1 -0 -0 -0 -0 -0 -0 -0 -0
-0 -0 -0 -0 -0 -0 -0 -0 -0 -0 -0 -0 -0 -0 -0 -0 -0 -0 -0 -0 -0 -0 -0 -0 -0 -0 -0 -0 -0 -0 -0 -0 -0 -0 -0 -0 -12 -53 -49 -46 -17 -3 -0 -0 -0 -0 -0 -0 -0
-0 -0 -0 -0 -0 -0 -0 -0 -0 -0 -0 -0 -0 -0 -0 -0 -0 -0 -0 -0 -0 -0 -0 -0 -0 -0 -0 -0 -0 -0 -0 -0 -0 -0 -0 -0 -0 -0 -0 -0 -0 -0 -0 -2 -0 -0 -0 -0 -0
-0 -0 -0 -0 -0 -0 -0 -0 -0 -0 -0 -0 -0 -0 -0 -0 -0 -0 -0 -0 -0 -0 -0 -0 -0 -0 -0 -0 -0 -0 -0 -0 -0 -0 -0 -0 -0 -0 -0 -0 -0 -0 -0 -32 -0 -0 -0 -0 -0
-0 -0 -0 -0 -0 -0 -0 -0 -0 -0 -0 -0 -0 -0 -0 -0 -0 -0 -0 -0 -0 -0 -0 -0 -0 -0 -0 -0 -0 -0 -0 -0 -0 -0 -0 -0 -0 -0 -0 -0 -0 -0 -0 -0 -0 -0 -0 -0 -0
-0 -0 -0 -0 -0 -0 -0 -0 -0 -0 -0 -0 -0 -0 -0 -0 -0 -0 -0 -0 -0 -0 -0 -0 -0 -0 -0 -0 -0 -0 -0 -0 -0 -0 -0 -0 -0 -0 -0 -0 -0 -0 -0 -0 -0 -0 -0 -0 -0
-0 -0 -0 -0 -0 -0 -0 -0 -0 -0 -0 -0 -0 -0 -0 -0 -0 -0 -0 -0 -0 -0 -0 -0 -0 -0 -0 -0 -0 -0 -0 -0 -0 -0 -0 -0 -0 -0 -0 -0 -0 -0 -0 -0 -0 -0 -0 -0 -0
-0 -0 -0 -0 -0 -0 -0 -0 -0 -0 -0 -0 -0 -0 -0 -0 -0 -0 -0 -0 -0 -0 -0 -0 -0 -0 -0 -0 -0 -0 -0 -0 -0 -0 -0 -0 -0 -0 -0 -0 -0 -0 -0 -0 -0 -0 -0 -0 -0
-0 -0 -0 -0 -0 -0 -0 -0 -0 -0 -0 -0 -0 -0 -0 -0 -0 -0 -0 -0 -0 -0 -0 -0 -0 -0 -0 -0 -0 -0 -0 -0 -0 -0 -0 -1 -0 -0 -0 -0 -0 -0 -0 -0 -0 -0 -0 -0 -0
-0 -0 -0 -0 -0 -0 -0 -0 -0 -0 -0 -0 -0 -0 -0 -0 -0 -0 -0 -0 -0 -0 -0 -0 -0 -0 -0 -0 -0 -0 -0 -0 -0 -0 -0 -0 -0 -0 -0 -0 -0 -0 -0 -0 -0 -0 -0 -0 -0
-0 -0 -0 -0 -0 -0 -0 -0 -0 -0 -0 -0 -0 -0 -0 -0 -0 -0 -0 -0 -0 -0 -0 -0 -0 -0 -0 -0 -0 -0 -0 -0 -0 -0 -0 -0 -0 -0 -0 -0 -0 -0 -0 -0 -0 -0 -0 -0 -0
Wind_Speed
6 5 2 4 5 2 4 5 3 2 6 13 11 13 16 15 8 5 6 23 24 19 15 12 13 10 9 9 9 6 5 4 3 4 3 3 4 4 3 4 4 4 4 3 5 4 4 4 4
4 2 3 2 4 4 6 5 6 4 9 2 7 2 10 9 11 6 11 22 18 17 17 19 23 22 21 20 17 15 12 9 6 5 4 5 5 4 5 4 4 6 7 7 7 6 5 6 6
3 3 3 1 1 5 4 7 6 6 5 5 4 13 7 9 10 6 11 13 15 16 15 16 21 20 21 22 19 18 17 16 15 11 8 5 4 4 5 6 7 6 5 8 9 9 9 8 8
3 3 3 4 10 8 6 7 6 3 5 9 4 10 10 11 4 8 7 9 10 13 13 16 19 19 21 21 19 19 18 17 18 17 15 12 9 12 11 8 6 6 6 7 8 10 11 12 11
1 3 3 7 12 8 10 7 4 4 4 9 5 9 8 7 9 8 9 9 10 12 11 16 21 21 21 21 19 18 17 18 17 17 17 17 16 15 14 14 13 10 12 8 8 10 11 12 14
2 3 5 6 10 7 9 7 5 7 8 10 8 7 8 7 10 9 9 9 9 11 13 14 19 21 21 21 20 19 19 19 18 17 17 16 17 16 16 16 15 13 12 14 14 11 9 11 14
2 3 6 8 7 7 7 4 10 5 13 14 11 6 8 9 7 7 8 9 11 12 13 12 14 16 18 20 19 18 18 18 18 18 17 16 16 15 16 15 16 15 15 14 12 14 15 14 13
2 3 6 4 3 5 10 6 6 17 13 3 14 6 7 8 7 6 8 9 11 11 12 12 11 14 13 13 16 15 15 15 14 13 15 12 10 12 13 14 15 14 14 13 13 14 14 13 13
2 3 6 6 4 8 11 6 14 14 17 22 11 14 11 7 6 7 8 11 12 13 15 15 15 14 14 12 11 13 13 12 11 11 12 10 7 9 9 10 12 13 13 12 13 13 13 14 9
5 6 5 3 6 10 15 13 6 9 14 16 15 14 12 11 12 14 15 15 17 17 17 16 16 15 15 12 13 11 10 9 8 8 10 8 9 7 9 7 9 10 12 9 11 10 10 9 7
5 6 7 8 4 4 9 21 13 5 15 15 14 14 16 18 17 17 16 16 16 16 15 17 16 15 15 11 9 6 6 6 7 9 9 8 7 6 5 5 5 7 8 6 8 7 5 8 7
12 6 5 10 9 5 10 13 24 22 15 15 17 16 16 18 17 17 17 17 17 17 17 17 16 15 15 11 9 9 8 7 7 7 8 7 5 6 7 5 5 5 5 8 7 5 8 9 8
16 12 13 14 20 22 21 23 21 20 15 14 16 17 18 18 19 17 18 17 18 18 17 17 17 16 15 15 11 11 10 8 8 9 8 6 7 7 7 7 6 6 5 5 7 7 8 9 9
9 16 12 13 17 15 22 17 9 13 11 15 17 18 18 20 20 19 20 20 19 19 18 17 17 16 16 14 15 12 11 11 10 10 10 11 8 8 8 8 8 8 6 6 6 6 7 8 9
12 9 9 12 4 5 9 18 11 7 9 14 15 16 17 19 20 21 20 20 21 19 20 19 18 17 17 17 14 13 12 12 11 11 13 13 11 12 11 9 9 9 8 10 8 7 8 8 8
2 3 4 8 8 5 9 7 9 9 11 14 16 16 18 20 21 21 20 20 20 20 20 20 17 19 18 17 14 11 12 13 12 12 11 13 12 13 12 10 10 10 8 9 9 7 7 8 8
5 7 6 3 10 4 6 10 8 8 11 15 17 18 18 19 20 21 21 20 20 20 20 20 20 19 18 17 14 14 14 11 12 13 11 14 13 13 12 11 11 12 10 10 10 9 8 8 9
12 10 6 7 8 11 12 14 9 9 12 16 19 18 19 20 22 21 20 18 18 18 18 19 17 19 19 15 13 12 12 12 11 12 12 15 12 15 12 11 13 12 11 11 10 11 9 9 10
9 9 9 12 5 5 9 10 7 9 15 18 20 22 22 22 21 21 20 20 20 20 20 20 19 19 15 13 13 13 12 13 13 12 15 15 14 15 15 12 13 12 12 12 12 11 12 10 10
6 6 13 5 2 10 8 8 7 8 13 16 19 22 23 23 23 24 23 22 21 23 22 21 21 20 17 14 13 13 13 13 13 13 16 18 18 17 14 15 14 15 12 14 13 12 11 11 10
6 12 17 17 14 3 8 7 2 6 12 18 20 22 23 25 26 27 27 26 25 25 24 22 23 22 19 21 14 13 14 12 13 14 13 14 17 17 15 15 15 15 14 12 13 13 14 12 11
6 16 18 15 5 3 6 3 4 5 16 21 23 24 25 26 27 25 25 27 26 24 23 24 24 24 20 22 17 21 16 16 14 14 14 14 18 18 18 18 17 17 14 15 14 13 13 13 12
7 23 13 4 2 4 3 8 9 4 19 25 26 26 26 27 27 28 28 28 29 26 25 24 26 25 24 23 21 17 19 15 14 14 19 18 17 18 18 19 18 18 14 16 17 15 14 12 12
17 19 3 3 3 4 3 9 11 8 18 25 27 28 28 29 29 29 28 28 27 26 24 23 26 26 25 23 22 19 20 20 17 17 15 14 14 14 17 17 16 16 16 16 15 15 16 14 13
20 19 5 4 5 6 4 12 11 11 20 26 25 28 29 28 28 29 31 28 28 27 26 23 25 25 24 24 22 22 21 21 21 20 14 18 14 13 16 17 16 14 16 16 15 15 15 14 13
11 15 7 8 9 13 9 8 7 9 23 26 25 26 29 30 29 29 29 27 27 28 27 26 25 26 27 26 24 20 22 13 14 17 15 13 13 14 18 17 16 18 17 16 16 13 13 15 13
6 8 4 7 3 7 4 5 7 18 27 29 29 31 31 31 30 31 31 29 27 27 27 26 27 25 25 25 21 21 19 19 17 21 18 13 16 14 16 18 18 16 17 17 16 13 15 15 14
10 7 2 3 8 10 7 9 9 25 28 30 33 32 31 31 32 29 28 27 26 26 24 25 25 25 24 24 20 17 19 19 17 16 17 18 17 16 16 18 15 14 16 16 16 13 14 15 13
5 5 4 2 4 6 9 5 8 22 25 29 31 31 32 32 31 29 27 27 26 26 26 26 25 25 23 22 21 20 19 19 17 16 15 15 15 15 15 16 14 13 16 16 14 15 15 16 16
10 4 5 3 6 2 5 7 7 22 24 28 30 31 32 31 30 28 29 28 28 28 27 27 26 24 23 22 21 20 19 18 17 16 16 15 15 14 14 13 13 14 15 14 13 13 14 16 17
Wind_Direction
301 316 287 235 224 225 100 69 345 48 76 57 60 62 78 31 3 42 347 3 356 13 21 38 37 38 44 38 34 27 23 20 7 346 335 328 332 335 302 267 281 269 258 249 227 210 205 209 215
307 272 233 266 261 229 90 31 37 58 88 41 60 44 36 64 24 35 10 345 3 19 24 29 37 42 40 43 42 40 31 22 12 354 332 327 321 318 295 280 274 281 280 268 247 239 235 232 231
244 289 275 9 24 50 73 40 66 90 27 354 108 46 35 353 26 14 352 351 8 23 30 34 39 42 41 42 41 39 35 26 20 18 16 334 332 313 316 316 310 296 272 277 279 265 255 241 241
284 197 156 53 81 57 30 43 27 53 70 40 64 78 96 40 37 25 24 17 18 25 27 37 44 42 42 43 42 42 36 29 25 19 16 19 30 24 24 359 313 321 313 301 281 272 259 256 240
256 236 100 91 78 77 55 36 20 43 78 38 350 98 81 52 56 42 28 21 29 30 33 37 36 38 41 40 38 36 35 35 28 27 18 19 28 36 33 33 31 42 13 356 312 286 274 262 259
158 265 137 111 98 74 56 27 55 48 47 30 79 95 68 60 44 35 22 25 36 41 35 30 39 37 35 35 34 32 31 29 28 24 25 25 24 26 29 31 24 27 32 14 9 0 336 297 272
86 70 98 115 107 76 26 8 35 26 25 35 340 60 91 62 50 42 41 48 43 38 33 28 28 29 32 33 25 29 28 29 21 21 21 20 21 23 24 24 24 20 23 22 14 1 355 342 337
44 80 119 40 82 74 20 53 35 24 46 317 358 38 78 47 43 52 55 50 43 39 35 26 19 17 15 17 19 19 19 21 15 15 10 14 9 15 21 15 17 13 18 17 14 6 357 348 333
291 116 93 50 21 56 16 75 71 87 75 59 69 71 74 77 85 55 38 42 34 26 21 14 9 7 2 4 8 1 8 6 2 360 4 345 357 6 359 15 6 6 6 6 6 4 355 347 329
21 69 57 354 41 94 60 45 34 76 55 64 65 58 52 45 31 28 27 19 17 15 12 11 6 1 356 352 352 347 344 350 351 355 353 349 346 356 339 351 353 353 356 349 353 354 340 341 338
45 104 124 37 46 132 114 64 38 162 54 39 45 45 41 33 31 25 19 16 8 6 4 2 359 356 355 351 334 335 330 332 331 340 346 335 334 332 340 335 344 343 346 341 337 337 346 334 329
107 105 79 50 52 83 80 81 65 60 67 58 52 48 44 37 31 23 16 12 4 1 358 352 350 345 343 337 336 325 315 320 310 328 324 323 324 324 324 321 326 326 335 330 330 329 328 321 314
100 101 88 88 79 75 75 69 72 55 50 59 57 49 38 31 23 17 9 3 355 352 350 347 341 338 335 326 324 321 316 296 296 285 296 291 303 302 303 303 305 313 310 318 321 320 321 313 314
118 104 102 72 81 77 86 63 45 48 55 51 43 39 35 26 17 10 6 356 350 341 337 333 333 332 330 323 315 309 305 300 282 280 281 283 277 283 290 295 298 295 303 305 310 314 309 309 306
130 128 125 43 31 100 156 57 64 59 53 48 41 31 18 12 4 2 354 347 342 337 334 332 326 324 321 319 319 311 295 296 290 282 281 280 282 279 285 284 285 287 291 291 287 298 303 302 302
194 217 277 39 4 54 208 77 64 47 52 40 29 18 9 4 360 356 349 342 339 335 334 328 322 319 321 319 313 306 304 292 285 281 277 277 281 284 269 273 275 276 278 277 279 281 289 295 298
57 334 322 171 30 2 357 120 82 46 41 33 22 12 4 357 358 354 347 341 335 333 328 327 324 321 318 316 309 304 298 294 284 277 276 275 276 282 274 268 270 270 269 267 266 268 276 275 284
324 318 321 329 33 63 71 110 95 55 34 26 18 9 1 354 354 345 341 335 332 328 324 321 319 317 318 311 307 302 301 294 292 287 280 283 282 280 281 277 271 269 266 266 264 264 266 274 277
296 291 306 357 62 22 92 124 103 49 31 19 10 4 355 349 342 341 341 338 333 332 327 324 318 315 311 307 305 304 300 297 295 289 282 277 273 275 277 275 274 264 260 263 272 274 274 270 277
326 328 347 351 83 320 146 129 99 40 30 15 4 359 351 344 342 339 338 336 336 328 328 324 317 312 310 305 303 296 292 291 289 287 284 283 280 278 272 268 267 265 266 266 264 269 274 275 276
31 1 335 312 317 37 158 169 171 53 14 3 3 351 349 349 343 339 335 333 332 329 327 321 317 314 311 308 303 297 291 283 283 283 283 283 284 282 276 272 267 264 257 259 264 267 269 272 274
329 342 319 311 282 344 216 321 105 17 8 1 355 351 348 344 339 334 332 333 329 326 323 319 315 312 311 308 298 297 291 289 286 288 283 281 279 275 272 268 264 263 260 259 260 262 259 255 260
327 319 321 301 226 236 131 272 80 28 359 355 351 349 345 340 337 333 334 331 327 325 321 317 314 310 308 307 301 293 288 286 285 280 282 278 276 267 266 263 265 264 257 257 258 262 258 252 249
323 316 181 213 210 220 57 344 78 18 349 351 349 345 344 339 335 332 331 329 323 322 319 316 315 314 311 308 299 290 287 285 284 280 277 272 271 269 264 261 262 264 261 259 257 253 252 252 248
7 354 356 315 337 14 309 305 67 11 350 350 346 343 339 336 334 334 331 329 324 323 322 319 318 315 313 310 308 300 295 288 281 279 274 271 269 262 262 263 259 257 259 255 258 258 253 248 246
30 20 33 314 328 323 306 330 75 340 347 342 344 339 338 338 335 331 330 326 324 324 323 323 319 316 313 311 307 301 298 288 283 275 271 269 270 268 266 264 264 258 255 258 255 254 247 247 245
15 30 348 285 243 270 335 99 153 344 347 340 343 340 339 334 333 330 329 328 326 327 325 323 321 316 309 310 305 300 297 292 287 285 281 274 269 266 265 261 258 260 259 256 254 251 247 243 244
62 346 295 12 348 315 343 332 357 348 344 340 338 337 334 332 330 328 329 327 328 327 323 323 319 313 308 304 303 297 291 286 281 277 273 271 267 269 268 263 257 257 257 255 251 247 246 247 243
30 26 44 282 335 314 318 57 29 347 339 338 334 333 333 332 330 330 329 331 329 327 328 326 322 317 314 310 305 300 295 291 285 278 270 265 267 266 266 265 260 255 250 247 249 250 243 245 245
54 50 355 339 348 33 279 294 353 351 335 336 334 333 332 330 331 328 331 332 332 331 329 327 324 321 319 316 310 304 299 295 289 281 278 265 257 253 248 248 248 249 252 239 243 243 248 240 238